FW2182 Weather Reports


time (UTC)temp
C
wind
direction
speed
KPH
gust
KPH
rain 1hr
cm
rain 24hr
cm
rain mn
cm
humidity
%
barometer
mb
20260508003314 11 318 0.0 0.0 0.00 0.00 0.00 52 1012.1
20260508002816 11 296 0.0 0.0 0.00 0.00 0.00 52 1012.1
20260508002339 11 257 0.0 1.6 0.00 0.00 0.00 52 1011.9
20260508001842 11 286 0.0 1.6 0.00 0.00 0.00 52 1011.9
20260508001322 12 302 0.0 0.0 0.00 0.00 0.00 51 1011.8
20260508000825 12 306 0.0 0.0 0.00 0.00 0.00 51 1011.7
20260508000327 12 300 0.0 0.0 0.00 0.00 0.00 50 1011.6
20260507235828 12 297 0.0 8.0 0.00 0.00 0.00 50 1011.5
20260507235329 12 299 0.0 17.7 0.00 0.00 0.00 50 1011.4
20260507234831 12 281 1.6 17.7 0.00 0.00 0.00 49 1011.2
20260507234352 12 252 0.0 1.6 0.00 0.00 0.00 50 1011.3
20260507233832 12 285 0.0 4.8 0.00 0.00 0.00 50 1011.2
20260507233314 13 296 0.0 4.8 0.00 0.00 0.00 49 1011.1
20260507232820 13 275 0.0 3.2 0.00 0.00 0.00 50 1011.0
20260507190813 15 277 0.0 29.0 0.00 0.00 0.00 46 1010.4
20260507190334 15 199 0.0 8.0 0.00 0.00 0.00 46 1010.4
20260507185834 15 265 0.0 3.2 0.00 0.00 0.00 49 1010.5
20260507185336 15 234 0.0 0.0 0.00 0.00 0.00 53 1010.4
20260507155315 13 223 0.0 0.0 0.00 0.00 0.00 54 1011.8
20260507154818 13 265 0.0 0.0 0.00 0.00 0.00 58 1012.0
20260507154323 13 227 0.0 0.0 0.00 0.00 0.00 57 1011.9
20260507153829 13 293 0.0 0.0 0.00 0.00 0.00 53 1012.0
20260507153331 13 284 0.0 0.0 0.00 0.00 0.00 54 1012.0
20260507152851 13 263 0.0 0.0 0.00 0.00 0.00 60 1012.0
20260507152332 13 213 0.0 3.2 0.00 0.00 0.00 59 1012.0
20260507151852 13 159 0.0 3.2 0.00 0.00 0.00 56 1012.2
20260507151314 12 170 0.0 0.0 0.00 0.00 0.00 56 1012.2
20260507150818 12 173 0.0 1.6 0.00 0.00 0.00 63 1012.3
20260507150319 12 260 0.0 0.0 0.00 0.00 0.00 58 1012.4
20260507145823 12 196 0.0 0.0 0.00 0.00 0.00 64 1012.4
20260507145327 12 186 0.0 0.0 0.00 0.00 0.00 59 1012.3
20260507144829 12 246 0.0 8.0 0.00 0.00 0.00 59 1012.5
20260507144314 12 248 0.0 8.0 0.00 0.00 0.00 60 1012.5
20260507143835 12 250 0.0 3.2 0.00 0.00 0.00 62 1012.6
20260507143314 12 265 0.0 3.2 0.00 0.00 0.00 57 1012.6
20260507142815 12 285 0.0 0.0 0.00 0.00 0.00 62 1012.7
20260507142319 12 296 0.0 0.0 0.00 0.00 0.00 63 1012.8
20260507141820 12 212 0.0 0.0 0.00 0.00 0.00 62 1012.8
20260507141321 12 93 0.0 0.0 0.00 0.00 0.00 65 1012.8
20260507140825 11 261 0.0 0.0 0.00 0.00 0.00 65 1013.0
20260507140329 11 288 0.0 0.0 0.00 0.03 0.00 63 1013.1
20260507135814 11 221 0.0 0.0 0.00 0.03 0.00 64 1013.2
20260507135315 11 247 0.0 0.0 0.00 0.03 0.00 64 1013.2
20260507134821 11 264 0.0 1.6 0.00 0.03 0.00 65 1013.2
20260507134333 11 225 0.0 1.6 0.00 0.03 0.00 62 1013.3
20260507133821 11 238 0.0 0.0 0.00 0.03 0.00 68 1013.3
20260507133326 11 282 0.0 0.0 0.00 0.03 0.00 69 1013.3
20260507132830 11 188 0.0 0.0 0.00 0.03 0.00 68 1013.3
20260507132317 10 151 0.0 0.0 0.00 0.03 0.00 69 1013.4
20260507131830 10 174 0.0 0.0 0.00 0.03 0.00 70 1013.3
20260507131319 10 242 0.0 0.0 0.00 0.03 0.00 73 1013.5
20260507130827 10 234 0.0 0.0 0.00 0.03 0.00 74 1013.4
20260507130313 9 223 0.0 0.0 0.00 0.08 0.00 74 1013.4
20260507125825 9 212 0.0 0.0 0.00 0.08 0.00 74 1013.4
20260507125333 9 212 0.0 0.0 0.00 0.08 0.00 75 1013.3
20260507124819 8 221 0.0 0.0 0.00 0.08 0.00 78 1013.4
20260507124331 8 195 0.0 0.0 0.00 0.08 0.00 80 1013.4
20260507123841 8 194 0.0 0.0 0.00 0.08 0.00 81 1013.5